Superior, WI

6:24 AM CST on November 18, 2017 (GMT -0600)
Bong

Weather History for KSUW - January, 2014

Change the Weather History Date:

Sunday, January 5, 2014

  Actual Average Record
Temperature  
Mean Temperature -14 °F -  
Max Temperature -7 °F 20 °F 48 °F (2012)
Min Temperature -22 °F 1 °F -29 °F (1959)
Degree Days  
Heating Degree Days 80    
Moisture  
Dew Point -23 °F    
Average Humidity 64    
Maximum Humidity 78    
Minimum Humidity 53    
Precipitation  
Precipitation 0.00 in - - ()
Sea Level Pressure  
Sea Level Pressure 30.30 in    
Wind  
Wind Speed 8 mph (WNW)    
Max Wind Speed 17 mph    
Max Gust Speed 23 mph    
Visibility 10 miles    
Events      
Averages and records for this station are not official NWS values.
T = Trace of Precipitation, MM = Missing Value Source: NWS Daily Summary

Daily Weather History Graph

Daily Weather History Graph

Search for Another Location

Airport or City:

Trip Planner

Search our weather history database for the weather conditions in past years. The results will help you decide how hot, cold, wet, or windy it might be!

Date:

Astronomy

Jan. 05, 2014 Rise Set
Actual Time 7:52 AM CST 4:35 PM CST
Civil Twilight 7:17 AM CST 5:10 PM CST
Nautical Twilight 6:39 AM CST 5:48 PM CST
Astronomical Twilight 6:03 AM CST 6:24 PM CST
Moon 10:14 AM CST (1/5) 10:25 PM CST (1/5)
Length of Visible Light 9h 52m
Length of Day
8h 42m
Waxing Crescent, 25% of the Moon is Illuminated
Jan 5
Waxing Crescent
Jan 7
First Quarter
Jan 15
Full
Jan 23
Last Quarter
Jan 30
New

Hourly Weather History & Observations

Time (CST) Temp. Windchill Dew Point Humidity Pressure Visibility Wind Dir Wind Speed Gust Speed Precip Events Conditions
12:15 AM -8.1 °F -22.7 °F -16.8 °F 66% 30.24 in 10.0 mi West 6.9 mph 10.4 mph N/A   Clear
12:35 AM -8.9 °F -25.0 °F -18.0 °F 64% 30.25 in 10.0 mi NW 8.1 mph - N/A   Clear
12:55 AM -9.8 °F -27.3 °F -18.8 °F 65% 30.25 in 10.0 mi WNW 9.2 mph - N/A   Clear
1:15 AM -10.1 °F -26.5 °F -18.8 °F 66% 30.26 in 10.0 mi WNW 8.1 mph - N/A   Clear
1:35 AM -10.5 °F -25.6 °F -19.3 °F 65% 30.26 in 10.0 mi WNW 6.9 mph - N/A   Clear
1:55 AM -11.0 °F -24.6 °F -19.3 °F 67% 30.26 in 10.0 mi WNW 5.8 mph - N/A   Clear
2:15 AM -11.7 °F -25.5 °F -19.5 °F 69% 30.27 in 10.0 mi West 5.8 mph - N/A   Clear
2:35 AM -12.1 °F -27.5 °F -19.8 °F 68% 30.27 in 10.0 mi WNW 6.9 mph - N/A   Clear
2:55 AM -12.5 °F -29.3 °F -19.8 °F 70% 30.27 in 10.0 mi WNW 8.1 mph - N/A   Clear
3:15 AM -12.3 °F -26.1 °F -19.7 °F 70% 30.28 in 10.0 mi West 5.8 mph - N/A   Clear
3:35 AM -12.5 °F -26.3 °F -19.3 °F 72% 30.28 in 10.0 mi WSW 5.8 mph - N/A   Clear
3:55 AM -13.2 °F -22.9 °F -19.7 °F 73% 30.28 in 10.0 mi West 3.5 mph - N/A   Clear
4:15 AM -13.5 °F -25.7 °F -19.8 °F 73% 30.28 in 10.0 mi West 4.6 mph - N/A   Clear
4:35 AM -14.1 °F -26.3 °F -20.7 °F 72% 30.29 in 10.0 mi West 4.6 mph - N/A   Clear
4:55 AM -14.3 °F -28.5 °F -21.1 °F 71% 30.30 in 10.0 mi SW 5.8 mph - N/A   Scattered Clouds
5:15 AM -15.2 °F -27.6 °F -21.3 °F 74% 30.30 in 10.0 mi WSW 4.6 mph - N/A   Scattered Clouds
5:35 AM -16.4 °F -31.0 °F -21.8 °F 76% 30.31 in 10.0 mi SW 5.8 mph - N/A   Clear
5:55 AM -16.8 °F -33.2 °F -22.2 °F 76% 30.32 in 10.0 mi SW 6.9 mph - N/A   Clear
6:15 AM -16.6 °F -31.3 °F -22.0 °F 76% 30.32 in 10.0 mi WSW 5.8 mph - N/A   Clear
6:35 AM -17.1 °F -33.6 °F -22.2 °F 78% 30.34 in 10.0 mi WSW 6.9 mph - N/A   Clear
6:55 AM -17.9 °F -32.8 °F -22.9 °F 78% 30.34 in 10.0 mi WSW 5.8 mph - N/A   Clear
7:15 AM -18.6 °F -35.3 °F -23.4 °F 78% 30.35 in 10.0 mi WSW 6.9 mph - N/A   Clear
7:35 AM -18.6 °F -33.6 °F -23.8 °F 77% 30.36 in 10.0 mi WSW 5.8 mph - N/A   Clear
7:55 AM -19.5 °F -36.4 °F -24.5 °F 78% 30.36 in 10.0 mi West 6.9 mph - N/A   Clear
8:15 AM -19.1 °F -36.0 °F -24.3 °F 77% 30.37 in 10.0 mi West 6.9 mph - N/A   Clear
8:35 AM -18.0 °F -30.9 °F -23.8 °F 75% 30.38 in 10.0 mi West 4.6 mph - N/A   Clear
8:55 AM -17.7 °F -28.0 °F -23.8 °F 74% 30.38 in 10.0 mi West 3.5 mph - N/A   Clear
9:15 AM -17.5 °F -34.0 °F -23.8 °F 73% 30.38 in 10.0 mi West 6.9 mph - N/A   Clear
9:35 AM -16.2 °F -32.5 °F -23.3 °F 71% 30.38 in 10.0 mi West 6.9 mph - N/A   Clear
9:55 AM -15.3 °F -31.4 °F -22.9 °F 69% 30.38 in 10.0 mi WNW 6.9 mph - N/A   Clear
10:15 AM -14.4 °F -30.3 °F -22.2 °F 68% 30.38 in 10.0 mi WNW 6.9 mph - N/A   Clear
10:35 AM -13.2 °F -28.8 °F -22.0 °F 65% 30.37 in 10.0 mi WNW 6.9 mph - N/A   Clear
10:55 AM -12.1 °F -25.9 °F -21.5 °F 63% 30.36 in 10.0 mi NW 5.8 mph - N/A   Clear
11:15 AM -11.4 °F -25.1 °F -21.3 °F 62% 30.35 in 10.0 mi West 5.8 mph - N/A   Clear
11:35 AM -10.7 °F -25.8 °F -20.9 °F 61% 30.34 in 10.0 mi WNW 6.9 mph - N/A   Clear
11:55 AM -9.9 °F -26.3 °F -20.7 °F 59% 30.33 in 10.0 mi NW 8.1 mph - N/A   Clear
12:15 PM -9.0 °F -25.2 °F -20.4 °F 58% 30.32 in 10.0 mi WNW 8.1 mph - N/A   Clear
12:35 PM -8.5 °F -23.2 °F -20.2 °F 57% 30.31 in 10.0 mi NW 6.9 mph - N/A   Clear
12:55 PM -8.1 °F -19.4 °F -19.8 °F 57% 30.29 in 10.0 mi West 4.6 mph - N/A   Clear
1:15 PM -7.8 °F -25.9 °F -19.7 °F 56% 30.29 in 10.0 mi NW 10.4 mph - N/A   Clear
1:35 PM -7.6 °F -29.1 °F -19.3 °F 57% 30.29 in 10.0 mi NW 15.0 mph 18.4 mph N/A   Clear
1:55 PM -7.6 °F -29.1 °F -19.7 °F 56% 30.28 in 10.0 mi NW 15.0 mph - N/A   Clear
2:15 PM -7.6 °F -27.5 °F -20.0 °F 55% 30.28 in 10.0 mi WNW 12.7 mph - N/A   Clear
2:35 PM -7.6 °F -29.1 °F -20.4 °F 54% 30.28 in 10.0 mi NNW 15.0 mph - N/A   Clear
2:55 PM -7.6 °F -26.6 °F -20.4 °F 54% 30.28 in 10.0 mi NW 11.5 mph - N/A   Clear
3:15 PM -7.8 °F -27.7 °F -20.9 °F 53% 30.29 in 10.0 mi NW 12.7 mph 16.1 mph N/A   Clear
3:35 PM -8.7 °F -28.0 °F -21.1 °F 55% 30.29 in 10.0 mi NW 11.5 mph - N/A   Clear
3:55 PM -9.6 °F -30.0 °F -21.5 °F 56% 30.29 in 10.0 mi NNW 12.7 mph - N/A   Clear
4:15 PM -9.4 °F -29.8 °F -22.0 °F 54% 30.29 in 10.0 mi NW 12.7 mph - N/A   Clear
4:35 PM -10.5 °F -29.2 °F -21.3 °F 59% 30.29 in 10.0 mi NW 10.4 mph - N/A   Clear
4:55 PM -10.8 °F -29.7 °F -22.7 °F 56% 30.29 in 10.0 mi NW 10.4 mph - N/A   Clear
5:15 PM -11.9 °F -28.7 °F -23.4 °F 57% 30.29 in 10.0 mi WNW 8.1 mph - N/A   Clear
5:35 PM -11.9 °F -33.0 °F -22.9 °F 58% 30.30 in 10.0 mi WNW 12.7 mph - N/A   Clear
5:55 PM -12.8 °F -33.2 °F -24.7 °F 56% 30.30 in 10.0 mi WNW 11.5 mph - N/A   Clear
6:15 PM -13.0 °F -36.0 °F -24.7 °F 56% 30.30 in 10.0 mi WNW 15.0 mph 23.0 mph N/A   Clear
6:35 PM -13.9 °F -31.1 °F -25.4 °F 56% 30.30 in 10.0 mi WNW 8.1 mph - N/A   Clear
6:55 PM -14.1 °F -31.3 °F -25.1 °F 58% 30.30 in 10.0 mi WNW 8.1 mph - N/A   Clear
7:15 PM -14.4 °F -34.2 °F -25.6 °F 57% 30.30 in 10.0 mi NW 10.4 mph 19.6 mph N/A   Clear
7:35 PM -15.0 °F -35.9 °F -26.0 °F 58% 30.30 in 10.0 mi NW 11.5 mph - N/A   Mostly Cloudy
7:55 PM -15.3 °F -32.9 °F -26.5 °F 57% 30.29 in 10.0 mi WNW 8.1 mph - N/A   Overcast
8:15 PM -15.9 °F -37.0 °F -26.7 °F 58% 30.29 in 10.0 mi NW 11.5 mph 17.3 mph N/A   Mostly Cloudy
8:35 PM -16.6 °F -37.9 °F -27.4 °F 58% 30.30 in 10.0 mi WNW 11.5 mph 17.3 mph N/A   Mostly Cloudy
8:55 PM -17.1 °F -39.6 °F -27.6 °F 59% 30.29 in 10.0 mi NW 12.7 mph 17.3 mph N/A   Scattered Clouds
9:15 PM -17.9 °F -41.4 °F -28.3 °F 59% 30.29 in 10.0 mi NW 13.8 mph 18.4 mph N/A   Scattered Clouds
9:35 PM -18.4 °F -44.5 °F -28.8 °F 59% 30.29 in 10.0 mi NW 17.3 mph 23.0 mph N/A   Clear
9:55 PM -19.1 °F -41.1 °F -29.2 °F 60% 30.29 in 10.0 mi NW 11.5 mph - N/A   Clear
10:15 PM -19.8 °F -40.9 °F -29.9 °F 60% 30.29 in 10.0 mi NW 10.4 mph - N/A   Clear
10:35 PM -20.6 °F -42.9 °F -29.7 °F 63% 30.28 in 10.0 mi NW 11.5 mph 18.4 mph N/A   Clear
10:55 PM -21.1 °F -44.6 °F -31.2 °F 60% 30.28 in 10.0 mi NW 12.7 mph 17.3 mph N/A   Clear
11:15 PM -21.6 °F -44.2 °F -31.2 °F 61% 30.28 in 10.0 mi NW 11.5 mph - N/A   Scattered Clouds
11:35 PM -22.0 °F -44.7 °F -31.4 °F 62% 30.27 in 10.0 mi WNW 11.5 mph 16.1 mph N/A   Clear
11:55 PM -22.0 °F -44.7 °F -31.4 °F 62% 30.26 in 10.0 mi WNW 11.5 mph 17.3 mph N/A   Mostly Cloudy